Regional Weather Roundup
Issued by NWS

Home | Current Version | Previous Version | Text Only | Print | Product List | Glossary On
Versions: 1 2 3 4 5 6 7 8 9 10 11 12 13 14 15 16 17 18 19 20 21 22 23 24 25 26 27 28 29 30 31 32 33 34 35 36 37 38 39 40 41 42 43 44 45 46 47 48 49 50
891
ASCA44 KEWX 192320
RWRMX

LATIN AMERICA AND CARIBBEAN REGIONAL WEATHER ROUNDUP
NATIONAL WEATHER SERVICE AUSTIN/SAN ANTONIO TX
500 PM CST THU JAN 19 2017

NOTE: "FAIR" INDICATED FEW OR NO CLOUDS BELOW 12,000 FEET WITH NO
SIGNIFICANT WEATHER AND/OR OBSTRUCTIONS TO VISIBILITY.

BAJA CALIFORNIA

CITY           SKY/WX    TMP DP  RH WIND       PRES   REMARKS
LORETO         MOSUNNY   72  64  78 S10       29.92F
LA PAZ         SUNNY     73  39  29 N9        29.97F
MEXICALI       PTSUNNY   66  37  34 W12       29.86F
S.J. DEL CABO  SUNNY     72  43  35 SE10      29.96F
TIJUANA        PTSUNNY   59  48  67 W9        29.97F

NORTHWESTERN MEXICO

CITY           SKY/WX    TMP DP  RH WIND       PRES   REMARKS
CULIACAN       SUNNY     75  48  38 W8        29.92F
DURANGO        SUNNY     66  23  19 SW22      30.06R
GUAYMAS        MOSUNNY   70  43  37 S6        29.90S
HERMOSILLO     MOSUNNY   72  41  33 SW12      29.95F
CD. JUAREZ     CLOUDY    54  32  43 W18       29.81F
LOS MOCHIS     SUNNY     72  46  40 W18       29.95R
OBREGON        PTSUNNY   70  43  37 SW9       29.90F

NORTHEASTERN MEXICO

CITY           SKY/WX    TMP DP  RH WIND       PRES   REMARKS
CHIHUAHUA      MOSUNNY   70  19  14 W14       29.88S
MATAMOROS      PTSUNNY   68  63  83 CALM      29.79S
MONCLOVA       SUNNY     82  25  12 W9        29.80F
MONTERREY      SUNNY     79  52  38 SE8       29.77S
NUEVO LAREDO   SUNNY     82  46  28 CALM      29.74F
PIEDRAS NEGRAS   N/A    N/A N/A N/A MISG        N/A
REYNOSA        CLOUDY    64  59  82 E6        29.79S FOG
SALTILLO       SUNNY     72  45  37 W12       29.97S
TORREON        SUNNY     77  30  18 CALM      29.87F
CD. VICTORIA   PTSUNNY   82  63  51 SE7       29.75S

WESTERN MEXICO

CITY           SKY/WX    TMP DP  RH WIND       PRES   REMARKS
AGUASCALIENTES PTSUNNY   70  27  19 SW15      30.12S
COLIMA         PTSUNNY   77  61  57 SW14      29.99
DEL BAJIO      PTSUNNY   75  34  22 W10       30.15R
GUADALAJARA    PTSUNNY   73  37  27 NW15      30.07S
MANZANILLO     PTSUNNY   82  70  65 W9        29.82F
MAZATLAN       MOSUNNY   75  48  38 W3        29.91F
P. VALLARTA    CLOUDY    75  66  73 S8        29.92F
URUAPAN        PTSUNNY   70  46  43 S9        30.11R
ZACATECAS      PTSUNNY   63  23  22 SW29      30.14R

CENTRAL MEXICO

CITY           SKY/WX    TMP DP  RH WIND       PRES   REMARKS
CUERNAVACA     PTSUNNY   81  41  24 S5        30.02S
MEXICO CITY    PTSUNNY   72  36  26 SE12G23   30.17R
MORELIA        PTSUNNY   72  43  35 S16       30.11R
POZA RICA      PTSUNNY   82  72  69 CALM      29.81R
PUEBLA         PTSUNNY   64  34  32 SE17      30.19R
QUERETARO      PTSUNNY   73  41  31 W12       30.15S
S. LUIS POTOSI CLOUDY    73  19  13 W15G26    30.05F
TAMPICO        MOSUNNY   79  70  73 SE12      29.75S HAZE
TOLUCA         PTSUNNY   63  39  42 S14       30.28R

SOUTHERN MEXICO

CITY           SKY/WX    TMP DP  RH WIND       PRES   REMARKS
ACAPULCO       CLOUDY    84  68  58 W12       29.84R
B. DE HUATULCO   N/A     84  75  74 SW12      29.88S HX  92
OAXACA         PTSUNNY   81  36  19 S12       30.05F
P. ESCONDIDO   MOSUNNY   86  73  66 S9        29.92S HX  93
VERACRUZ       PTSUNNY   81  72  74 E9        29.77S
ZIHUATANEJO    PTSUNNY   84  70  61 W9        29.86S

YUCATAN PENINSULA

CITY           SKY/WX    TMP DP  RH WIND       PRES   REMARKS
CAMPECHE       PTCLDY    84  73  70 NW12G23   29.80R HX  91
CANCUN         PTCLDY    81  68  65 SE10      29.95R
CHETUMAL       PTCLDY    81  73  78 SE12      29.90S
CD. DEL CARMEN SUNNY     86  68  54 SE7       29.82S
COZUMEL        PTCLDY    79  70  73 SE8       29.93R
MERIDA         PTCLDY    90  63  40 SE8       29.84S HX  90
MINATITLAN     MOSUNNY   82  68  61 N12       29.73F
TAPACHULA      PTSUNNY   86  68  54 W9        29.84R
TUX. GUTIERREZ MOSUNNY   90  55  31 NE5       29.83S
VILLAHERMOSA   SUNNY     82  72  69 E9        29.83S HAZE

CENTRAL AMERICA

CITY           SKY/WX    TMP DP  RH WIND       PRES   REMARKS
BELIZE CITY    PTCLDY    81  73  78 SE6       29.91R
MANAGUA        PTCLDY    82  68  61 E16       29.86R

CARIBBEAN

CITY           SKY/WX    TMP DP  RH WIND       PRES   REMARKS
ARUBA          PTCLDY    79  70  73 E9        29.89R
CURACAO        PTCLDY    79  72  78 E12       29.89S
KINGSTON       PTCLDY    81  68  65 SE9       29.92S
NASSAU         PTCLDY    73  63  68 CALM      30.02S
SAN JUAN       PTCLDY    75  63  64 E5        29.97R
SANTO DOMINGO  PTCLDY    77  70  78 CALM      29.92S
ST. CROIX      PTCLDY    72  64  78 N5        29.97
ST. KITTS      PTCLDY    73  68  83 N5        29.94R
ST. MAARTEN    PTCLDY    75  68  78 VRB2      29.94S
ST. THOMAS     CLEAR     73  64  73 NE5       29.95

$$





USA.gov is the U.S. government's official web portal to all federal, state and local government web resources and services.